Location: Hall+in+Tirol
(47.2830°N, 11.5170°E)
Time: 16:09:44
(UTC+01:00)

Gurwin Techsat 1B - Visible Passes

Search period start: 30 October 2014 00:00
Search period end: 09 November 2014 00:00
Orbit: 813 x 814 km, 98.5° (Epoch: 29 October)

Date Brightness Start Highest point End Pass type
(mag) Time Alt. Az. Time Alt. Az. Time Alt. Az.
30 Oct 11.4 02:28:15 10° NNE 02:28:41 12° NNE 02:28:41 12° NNE visible
30 Oct 10.5 04:08:16 10° N 04:09:54 19° N 04:09:54 19° N visible
31 Oct 10.6 03:45:23 10° N 03:46:50 19° N 03:46:50 19° N visible
01 Nov 10.8 03:22:36 10° NNE 03:23:45 17° NNE 03:23:45 17° NNE visible
01 Nov 10.7 05:04:19 10° NNW 05:04:58 12° NNW 05:04:58 12° NNW visible
02 Nov 11.1 02:59:57 10° NNE 03:00:41 14° NNE 03:00:41 14° NNE visible
02 Nov 10.6 04:40:52 10° NNW 04:41:54 14° NNW 04:41:54 14° NNW visible
03 Nov 11.5 02:37:27 10° NNE 02:37:37 11° NNE 02:37:37 11° NNE visible
03 Nov 10.7 04:17:44 10° N 04:18:50 15° N 04:18:50 15° N visible
04 Nov 10.8 03:54:47 10° N 03:55:46 15° N 03:55:46 15° N visible
05 Nov 11.0 03:31:58 10° N 03:32:42 14° N 03:32:42 14° N visible
06 Nov 11.2 03:09:15 10° NNE 03:09:38 12° NNE 03:09:38 12° NNE visible
06 Nov 10.8 04:50:28 10° NNW 04:50:50 11° NNW 04:50:50 11° NNW visible
07 Nov 10.8 04:27:14 10° N 04:27:46 12° N 04:27:46 12° N visible
08 Nov 10.9 04:04:12 10° N 04:04:43 13° N 04:04:43 13° N visible
